(349) Dembowska
ephemeris date magn radius delta ra dec elong phase
Today19 Apr 202510.83.141 AU2.213 AU15h30m-22°10'153.0°8.3°
Opposition11 May 202510.33.131 AU2.122 AU15h11m-21°57'176.0°1.3°
(349) Dembowska - 2025-04-19
astro.vanbuitenen.nl


 
-1 year
-1 month
-1 day
Now
+1 day
+1 month
+1 year

The interactive orbit chart above shows the body's path through the solar system and its position at the given date. Green and blue lines are shown perpendicular to the ecliptic plane: Green if the path is above the ecliptic plane, blue if it is below. (Left-click and drag to rotate the view; Right-click and drag to move the view; Use scroll wheel to zoom in our out.)

The orbital elements of Dembowska are:

            e (Eccentricity)                : 0.0887058
            a (Semimajor axis)              : 2.9251394
            i (Inclination)                 : 8.24906
            Ω (Longitude of ascending node) : 32.19631
            ω (Argument of perihelion)      : 344.51796
            M (Mean anomaly)                : 219.46953
            Epoch                           : 2025 May 05

            L (Longitude of perihelion)     : 16.86688
            B (Latitude of perihelion)      : -2.19491
            P (Orbital period in years)     : 5.00            
        

The light curve chart below shows the estimated development of the minor planet's magnitude.


The all-sky chart below shows the path of the minor planet over the same period as the light curve. The current position is marked yellow.





The following chart shows the path of the minor planet in the next few days. The field of view is optimized for (~10x50) binoculars and finderscopes. A more printer-friendly version of the same chart can be found below.




Ephemerides:
Date       Time       RA (2000)    DEC (2000)    delta   radius  elong  phase   PA    magn
2025-04-19 00:00 UT   15 30 09.2   -22 10 09     2.213    3.141  153.0    8.3   290   10.8 
2025-04-19 21:33 UT   15 29 31.6   -22 10 22     2.207    3.141  154.0    8.1   291   10.8 
2025-04-20 00:00 UT   15 29 27.3   -22 10 23     2.206    3.141  154.1    8.0   291   10.8 
2025-04-21 00:00 UT   15 28 44.3   -22 10 31     2.200    3.141  155.3    7.7   291   10.8 
2025-04-22 00:00 UT   15 28 00.4   -22 10 35     2.193    3.140  156.4    7.4   292   10.8 
2025-04-23 00:00 UT   15 27 15.4   -22 10 35     2.187    3.140  157.5    7.0   292   10.7 
2025-04-24 00:00 UT   15 26 29.6   -22 10 29     2.181    3.139  158.6    6.7   293   10.7 
2025-04-25 00:00 UT   15 25 42.8   -22 10 19     2.175    3.139  159.8    6.4   294   10.7 
2025-04-26 00:00 UT   15 24 55.1   -22 10 04     2.170    3.138  160.9    6.0   294   10.7 
2025-04-27 00:00 UT   15 24 06.7   -22 09 45     2.165    3.138  162.0    5.7   295   10.7 
2025-04-28 00:00 UT   15 23 17.4   -22 09 21     2.160    3.137  163.1    5.3   296   10.6 
2025-04-29 00:00 UT   15 22 27.5   -22 08 52     2.156    3.137  164.3    5.0   297   10.6 
2025-04-30 00:00 UT   15 21 36.9   -22 08 19     2.151    3.136  165.4    4.6   298   10.6 
2025-05-01 00:00 UT   15 20 45.7   -22 07 42     2.147    3.136  166.5    4.3   300   10.6 
2025-05-02 00:00 UT   15 19 53.9   -22 07 00     2.144    3.135  167.6    4.0   302   10.5 
2025-05-03 00:00 UT   15 19 01.6   -22 06 14     2.140    3.135  168.7    3.6   304   10.5 
2025-05-04 00:00 UT   15 18 08.8   -22 05 25     2.137    3.134  169.8    3.3   306   10.5 
2025-05-05 00:00 UT   15 17 15.6   -22 04 31     2.134    3.134  170.9    2.9   309   10.5 
2025-05-06 00:00 UT   15 16 22.1   -22 03 33     2.131    3.133  171.9    2.6   313   10.4 
2025-05-07 00:00 UT   15 15 28.2   -22 02 31     2.129    3.133  172.9    2.3   318   10.4 
2025-05-08 00:00 UT   15 14 34.1   -22 01 26     2.127    3.132  173.8    2.0   324   10.4 
2025-05-09 00:00 UT   15 13 39.9   -22 00 17     2.125    3.132  174.7    1.7   332   10.4 
2025-05-10 00:00 UT   15 12 45.4   -21 59 05     2.124    3.131  175.4    1.5   343   10.4 
2025-05-11 00:00 UT   15 11 50.9   -21 57 50     2.123    3.131  175.8    1.3   358   10.3 
2025-05-12 00:00 UT   15 10 56.4   -21 56 31     2.122    3.130  176.0    1.3    14   10.3 
2025-05-13 00:00 UT   15 10 01.8   -21 55 09     2.121    3.130  175.8    1.3    30   10.3 
2025-05-14 00:00 UT   15 09 07.3   -21 53 45     2.121    3.129  175.4    1.5    45   10.3 
2025-05-15 00:00 UT   15 08 13.0   -21 52 17     2.121    3.129  174.7    1.7    56   10.4 
2025-05-16 00:00 UT   15 07 18.8   -21 50 47     2.121    3.128  173.8    2.0    64   10.4 
2025-05-17 00:00 UT   15 06 24.8   -21 49 15     2.122    3.128  172.9    2.3    70   10.4 
2025-05-18 00:00 UT   15 05 31.1   -21 47 41     2.123    3.127  171.9    2.6    75   10.4 
2025-05-19 00:00 UT   15 04 37.7   -21 46 04     2.124    3.127  170.9    2.9    79   10.5 


    Terminology:
            
    delta:  distance between minor planet and earth in AU
    radius: distance between minor planet and sun in AU
    magn:   magnitude (brightness) estimate    
    ra:     right ascension in hours (24h = 360deg)
    dec:    declination in degrees
    elong:  elongation in degrees (angle sun-earth-minor planet)    
    phase:  phase angle in degrees (angle sun-minor planet-earth)        
    AU:     Astronomical Unit (mean distance between earth and sun: 149597870.7 km
    

Orbital elements provided by the MPC (Minor Planet Center).
Calculations by a modified version of AAPlus, a C# implementation of the AA+ project by PJ Naughter from the algorithms presented in the book "Astronomical Algorithms" by Jean Meeus.
NGC2000 dso catalog and star labels from VizieR as provided by the Strasbourg astronomical Data Center.
Tycho2 catalog from the ESO archive.